Regional Weather Roundup
Issued by NWS

Home | Current Version | Previous Version | Graphics & Text | Print | Product List | Glossary On
Versions: 1 2 3 4 5 6 7 8 9 10 11 12 13 14 15 16 17 18 19 20 21 22 23 24 25 26 27 28 29 30 31 32 33 34 35 36 37 38 39 40 41 42 43 44 45 46 47 48 49 50
000
ASUS43 KLMK 292102
RWRKY
KENTUCKY REGIONAL WEATHER ROUNDUP
NATIONAL WEATHER SERVICE LOUISVILLE KY
500 PM EDT TUE JUL 29 2014

NOTE "FAIR" INDICATES FEW OR NO CLOUDS BELOW 12,000 FEET
WITH NO SIGNIFICANT WEATHER AND/OR OBSTRUCTIONS TO VISIBILITY.

KYZ001>023-026-027-061>063-070>075-292200-
WESTERN AND SOUTH CENTRAL KENTUCKY

CITY           SKY/WX    TMP DP  RH WIND       PRES   REMARKS
PADUCAH        SUNNY     81  52  36 MISG      30.11F
HENDERSON      MOSUNNY   79  55  44 NW8       30.09S
OWENSBORO      MOSUNNY   78  55  44 NW10      30.09F
HOPKINSVILLE   SUNNY     80  49  33 NW6       30.09S
BOWLING GREEN  PTSUNNY   78  51  38 NW10      30.08F
GLASGOW        CLOUDY    74  53  46 N8        30.09R
$$

KYZ024-025-028>034-038-045-046-053-292200-
NORTH CENTRAL KENTUCKY

CITY           SKY/WX    TMP DP  RH WIND       PRES   REMARKS
LOUISVILLE/SDF MOSUNNY   78  52  40 NW9       30.07S
LOUISVILLE/LOU MOSUNNY   77  51  40 N9        30.08S
FORT KNOX      NOT AVBL
$$

KYZ035>037-039>044-047>052-055>060-089>105-292200-
NORTHEAST KENTUCKY

CITY           SKY/WX    TMP DP  RH WIND       PRES   REMARKS
LEXINGTON      MOSUNNY   73  52  47 NW7       30.08F
COVINGTON      MOSUNNY   72  51  47 W12       30.07S
FRANKFORT      PTSUNNY   73  51  46 NW12      30.07F
$$

KYZ054-064>069-076>088-106>120-292200-
SOUTHEAST KENTUCKY

CITY           SKY/WX    TMP DP  RH WIND       PRES   REMARKS
JACKSON        CLOUDY    68  54  60 VRB5      30.07S
LONDON         PTSUNNY   72  51  47 NW9       30.08S
SOMERSET       PTSUNNY   72  50  46 N8        30.09S
MIDDLESBORO    MOSUNNY   72  52  48 N5        30.07S
MONTICELLO     PTCLDY    74  55  51 N7        30.10S
$$



USA.gov is the U.S. government's official web portal to all federal, state and local government web resources and services.